Skip Page Navigation
NASA JPL Caltech
NASA Logo - Jet Propulsion Laboratory + View the NASA Portal
+ Near-Earth Object (NEO) Program
Search JPL
JPL Home Earth Solar System Stars & Galaxies Technology
JPL Solar System Dynamics
BODIES ORBITS EPHEMERIDES TOOLS PHYSICAL DATA DISCOVERY FAQ SITE MAP
JPL Small-Body Database Browser
Search: [ help ]  
10734 Wieck (1988 CT4)
Classification: Main-belt Asteroid          SPK-ID: 2010734
Ephemeris | Orbit Diagram | Orbital Elements | Physical Parameters | Discovery Circumstances | Close-Approach Data ]

[ show orbit diagram ]
Orbital Elements at Epoch 2457000.5 (2014-Dec-09.0) TDB
Reference: JPL 11 (heliocentric ecliptic J2000)
 Element Value Uncertainty (1-sigma)   Units 
e .05171518377854094 5.7374e-08  
a 3.019501040734113 3.3052e-08 AU
q 2.863346989493053 1.8275e-07 AU
i 9.400241963650135 7.0398e-06 deg
node 197.9252346128114 3.6054e-05 deg
peri 71.05424143766818 7.9791e-05 deg
M 288.7057850347678 7.3746e-05 deg
tp 2457380.036014553286
(2015-Dec-23.53601455)
0.00039389 JED
period 1916.466368355609
5.25
3.1467e-05
8.615e-08
d
yr
n .1878457174851922 3.0843e-09 deg/d
Q 3.175655091975174 3.4762e-08 AU
  Orbit Determination Parameters
   # obs. used (total)      1030  
   data-arc span      12517 days (34.27 yr)  
   first obs. used      1980-10-13  
   last obs. used      2015-01-20  
   planetary ephem.      DE431  
   SB-pert. ephem.      SB431-BIG16  
   condition code      0  
   fit RMS      .53224  
   data source      ORB  
   producer      Otto Matic  
   solution date      2015-Feb-04 13:29:58  

Additional Information
 Earth MOID = 1.86724 AU 
 T_jup = 3.224 
[ show covariance matrix ]

Ephemeris | Orbit Diagram | Orbital Elements | Physical Parameters | Discovery Circumstances | Close-Approach Data ]

Physical Parameter Table
Parameter Symbol Value Units Sigma Reference Notes
absolute magnitude H 12.8 mag n/a PDS3 (MPC 34753)  

10734 Wieck          
Clara Josephine Wieck (1819-1896) was a German child prodigy and by 1835 had established a reputation as a pianist throughout Europe. In 1840 she married the famous composer Robert Schumann. She has left us a beautiful piano concerto, chamber music, songs and many pieces for solo piano.
NOTE: some special characters may not display properly (any characters within {} are an attempt to place the proper accent above a character)
Reference: 20000320/MPCPages.arcLast Updated: 2013-03-29

[ show close-approach data ]
Alternate Designations
 1988 CT4 = 1980 TA9 = 1988 CE6 = 1996 SV6 
Ephemeris | Orbit Diagram | Orbital Elements | Physical Parameters | Discovery Circumstances | Close-Approach Data ]
ABOUT SSD CREDITS/AWARDS PRIVACY/COPYRIGHT GLOSSARY LINKS
FirstGov 2015-Mar-06 02:27 UT
(server date/time)  
NASA Home Page
Site Manager:   Ryan S. Park
Webmaster  Alan B. Chamberlin